Starlink 4751

operational
NORAD ID: 53825 Int'l Des: 2022-114 Owner: SPXS Country: US Constellation: starlink
LEOCIRCULAR

Über Starlink 4751

Beschreibung wird geladen...

Live-Position

3D-Globus wird geladen...

Nächste Überflüge

Höhenverlauf

Altitude vs Time

uPlot chart will show altitude changes over time

Zweizeiliger Elementsatz

1 53825U 22114H 25258.04925351 .00002711 00000-0 18831-3 0 9999
2 53825 53.2192 12.7420 0000934 82.9967 277.1131 15.08848119166314
Epoch: 15. Sept. 2025 • Age: 19 hours

Aktueller Status

Höhe 556.0 km
Geschwindigkeit 7.58 km/s
Subsatellitenpunkt -46.02°S, 51.53°W
Startdatum 19. Sept. 2022
Alter 2.9 years
Typ internet

Technische Details

Klassifizierung Payload
Masse 305.00 kg
Trockenmasse 290.00 kg
Gesamtmasse 305.00 kg
Länge 0.20 m
Durchmesser 2.80 m
Spannweite 9.00 m
Form Box + pan
Hersteller SPXS
Bus-Typ Starlink
Phasenstatus In Orbit
Besitzer/Staat SPXS/US

Große Konstellationen

Loading constellations...